Regional Weather Roundup
Issued by NWS Grand Forks, ND

Home | Current Version | Previous Version | Graphics & Text | Print | Product List | Glossary On
Versions: 1 2 3 4 5 6 7 8 9 10 11 12 13 14 15 16 17 18 19 20 21 22 23 24 25 26 27 28 29 30 31 32 33 34 35 36 37 38 39 40 41 42 43 44 45 46 47 48 49 50
000
ASUS43 KFGF 191831
RWRFGF
PRAIRIE TO PINES  WEATHER ROUNDUP
NATIONAL WEATHER SERVICE EASTERN NORTH DAKOTA/GRAND FORKS ND
100 PM CDT TUE AUG 19 2014

 **SATELLITE DATA USED TO AUGMENT SKY COVER AT AUTOMATED STATIONS**
 *****  WEATHER ACROSS EASTERN NORTH DAKOTA  *****

CITY           SKY/WX    TMP DP  RH WIND       PRES   REMARKS
GRAND FORKS    MOSUNNY   78  64  61 VRB6      29.75S
6HR MIN TEMP:  59; 6HR MAX TEMP:  78;

GRAND FRKS AFB MOSUNNY   77  68  73 N6        29.76F
GRAND FRKS NWS   N/A     79 N/A N/A N1          N/A
DEVILS LAKE    MOSUNNY   79  63  57 N3        29.75F
6HR MIN TEMP:  59; 6HR MAX TEMP:  79;

FARGO          MOSUNNY   79  66  64 N6        29.75F
WAHPETON ARPT  CLEAR     79  61  53 NW8       29.76F
$$

 ***** WEATHER ACROSS CENTRAL AND WESTERN NORTH DAKOTA  *****

CITY           SKY/WX    TMP DP  RH WIND       PRES   REMARKS
BISMARCK       SUNNY     84  63  49 SW5       29.77F
6HR MIN TEMP:  56; 6HR MAX TEMP:  84;

MINOT          SUNNY     81  58  45 CALM      29.75F
6HR MIN TEMP:  60; 6HR MAX TEMP:  81;

JAMESTOWN      MOSUNNY   79  64  60 NW6       29.77F
6HR MIN TEMP:  61; 6HR MAX TEMP:  80;

MINOT AFB      SUNNY     81  62  52 VRB2      29.74F
GARRISON         N/A     80  65  59 VRB5      29.77F
WILLISTON      SUNNY     84  57  39 VRB6      29.74F
6HR MIN TEMP:  54; 6HR MAX TEMP:  84;

DICKINSON      SUNNY     82  59  45 S8        29.77F
6HR MIN TEMP:  56; 6HR MAX TEMP:  82;

HETTINGER      SUNNY     82  56  40 S9        29.81F
6HR MIN TEMP:  53; 6HR MAX TEMP:  82;

$$

 *****  OTHER AIRPORT OBSERVATIONS IN OUR AREA  *****

CITY           SKY/WX    TMP DP  RH WIND       PRES   REMARKS
WALHALLA       FAIR      77  66  69 CALM        N/A
GRAFTON AIRPOR FAIR      77  63  61 NW5       29.75S
VALLEY CITY AR FAIR      81  64  57 NW9       29.77F
CANDO          FAIR      81  64  57 W5        29.76F
CAVALIER APRT  FAIR      77  63  61 W5        29.75F
GWINNER        PTCLDY    82  64  54 NW6       29.78F
SHEYENNE NWR     N/A     81  65  58 N6        29.95S
ROLLA            N/A     77  63  61 SW6       29.78
 ***** THE ABOVE OBSERVATIONS ARE NON NWS ARE NOT QUALITY
       CONTROLLED AND MAY MIS-REPORT RAIN FOR SNOW...
$$

  *****  WEATHER ACROSS NORTHERN MINNESOTA  *****

CITY           SKY/WX    TMP DP  RH WIND       PRES   REMARKS
FLAG ISLAND    CLOUDY    66  61  82 N5        29.76S
WARROAD        SUNNY     72  64  78 NE8       29.77S
ROSEAU         SUNNY     72  64  78 CALM      29.76S
HALLOCK        SUNNY     75  64  69 CALM      29.75S
THF RVR FALLS  PTSUNNY   73  63  68 CALM      29.77S
6HR MIN TEMP:  61; 6HR MAX TEMP:  73; 6HR PCP:  0.01;

BAUDETTE       CLOUDY    70  61  73 N9        29.76S
6HR MIN TEMP:  61; 6HR MAX TEMP:  71;

WASKISH        PTSUNNY   70  66  88 CALM      29.76S
CROOKSTON      SUNNY     75  64  69 N3        29.76F
$$
  *****  WEATHER ACROSS CENTRAL AND WEST MINNESOTA  *****

CITY           SKY/WX    TMP DP  RH WIND       PRES   REMARKS
FOSSTON        PTSUNNY   73  63  68 NW5       29.78S
BEMIDJI        CLOUDY    71  62  72 NW8       29.77R
PARK RAPIDS    PTSUNNY   74  59  59 NW13      29.76S
6HR MIN TEMP:  63; 6HR MAX TEMP:  75;

ELBOW LAKE     FAIR      75  64  68 NW6       29.77S
6HR MIN TEMP:  61; 6HR MAX TEMP:  76;

WADENA         MOSUNNY   75  63  64 NW10      29.76S
DETROIT LAKES  MOSUNNY   73  63  68 N10       29.79S
MOORHEAD       SUNNY     79  68  69 N9        29.76F
FERGUS FALLS   MOSUNNY   79  61  53 NW9       29.76F
MORRIS MN      SUNNY     82  64  54 NW9       29.77S
STAPLES        PTSUNNY   75  63  64 W10       29.76S
$$
  *****  WEATHER ELSEWHERE ACROSS MINNESOTA  *****

CITY           SKY/WX    TMP DP  RH WIND       PRES   REMARKS
DULUTH         CLOUDY    68  63  83 NW9       29.73S
6HR MIN TEMP:  61; 6HR MAX TEMP:  70; 6HR PCP:  0.04;

INTRNTL FALLS  CLOUDY    70  60  70 NE10      29.75S
6HR MIN TEMP:  61; 6HR MAX TEMP:  70; 6HR PCP:  0.02;

ELY            CLOUDY    63  57  82 CALM      29.75S
CLOQUET        PTSUNNY   70  63  78 NW7       29.74S
WHEATON        SUNNY     77  64  65 NW9       29.78F
BRAINERD       CLOUDY    67  64  90 NW7       29.76S
6HR MIN TEMP:  63; 6HR MAX TEMP:  72; 6HR PCP:  0.07;

HIBBING        CLOUDY    70  61  73 NW9       29.74F
6HR MIN TEMP:  63; 6HR MAX TEMP:  71; 6HR PCP:  0.02;

ALEXANDRIA     MOSUNNY   75  63  66 NW8       29.79S
6HR MIN TEMP:  63; 6HR MAX TEMP:  76;

SAINT CLOUD    MOSUNNY   78  62  57 N8        29.76F
6HR MIN TEMP:  65; 6HR MAX TEMP:  78;

MINNEAPOLIS    PTSUNNY   75  61  61 NW12      29.75F
6HR MIN TEMP:  65; 6HR MAX TEMP:  77;

$$

  *****  WEATHER ACROSS SOUTH DAKOTA  *****

CITY           SKY/WX    TMP DP  RH WIND       PRES   REMARKS
SIOUX FALLS    MOSUNNY   82  60  47 N5        29.82F
6HR MIN TEMP:  62; 6HR MAX TEMP:  82;

BROOKINGS      NOT AVBL
WATERTOWN      SUNNY     78  62  57 NW10      29.81F
6HR MIN TEMP:  64; 6HR MAX TEMP:  79;

HURON          SUNNY     83  59  44 W6        29.79F
6HR MIN TEMP:  55; 6HR MAX TEMP:  83;

SISSETON         N/A     81  65  58 N7        29.76F
ABERDEEN       SUNNY     82  60  47 NW10      29.79F
6HR MIN TEMP:  55; 6HR MAX TEMP:  83;

MITCHELL       SUNNY     82  59  45 CALM      29.82F
PIERRE         SUNNY     85  58  39 VRB5      29.78F
6HR MIN TEMP:  56; 6HR MAX TEMP:  85;

MOBRIDGE       SUNNY     81  62  52 S5        29.77F
RAPID CITY     MOSUNNY   80  61  52 SE12      29.83F
6HR MIN TEMP:  58; 6HR MAX TEMP:  80;

$$

  *****  SOME WEATHER IN NEARBY STATES *****

CITY           SKY/WX    TMP DP  RH WIND       PRES   REMARKS
GLASGOW MT     SUNNY     87  53  31 S16       29.68F
6HR MIN TEMP:  61; 6HR MAX TEMP:  87;

GREAT FALLS MT FAIR      83  42  23 NW13G22   29.77F
6HR MIN TEMP:  54; 6HR MAX TEMP:  83;

CHEYENNE WY    PTSUNNY   84  38  19 NW14G21   30.01F
6HR MIN TEMP:  54; 6HR MAX TEMP:  84;

SCOTTSBLUFF NE MOSUNNY   85  60  42 E13       29.86F
6HR MIN TEMP:  57; 6HR MAX TEMP:  85;

OMAHA NE       MOSUNNY   86  61  42 VRB3      29.83F
6HR MIN TEMP:  68; 6HR MAX TEMP:  86;

DES MOINES IA  MOSUNNY   83  65  54 NW9       29.81R
6HR MIN TEMP:  70; 6HR MAX TEMP:  83;

DAVENPORT IA   MOSUNNY   82  68  62 W9        29.76F
6HR MIN TEMP:  71; 6HR MAX TEMP:  82;

CHICAGO IL     CLOUDY    81  68  64 W21G31    29.71F
6HR MIN TEMP:  72; 6HR MAX TEMP:  81;

EAU CLAIRE WI  CLOUDY    71  63  75 W9        29.73S
6HR MIN TEMP:  64; 6HR MAX TEMP:  71;

LA CROSSE WI   PTSUNNY   77  63  61 W12       29.73R
6HR MIN TEMP:  68; 6HR MAX TEMP:  79;

$$

  *****  SOME NATIONAL WEATHER *****

CITY           SKY/WX    TMP DP  RH WIND       PRES   REMARKS
LA GUARDIA NY  MOSUNNY   77  61  57 NE10      29.90F
6HR MIN TEMP:  67; 6HR MAX TEMP:  77;

RALEIGH NC     PTSUNNY   83  69  62 VRB5      29.87F
6HR MIN TEMP:  72; 6HR MAX TEMP:  83;

ATLANTA GA     RAIN      81  72  74 W7        29.94F
6HR MIN TEMP:  73; 6HR MAX TEMP:  85;

NEW ORLEANS LA MOSUNNY   91  71  51 VRB5      29.99F HX  97
6HR MIN TEMP:  78; 6HR MAX TEMP:  92;

OKLAHOMA CITY  MOSUNNY   91  67  44 S16       29.90F HX  94
6HR MIN TEMP:  70; 6HR MAX TEMP:  91;

ALBUQUERQUE NM PTSUNNY   83  46  27 W7        30.07F
6HR MIN TEMP:  65; 6HR MAX TEMP:  83;

SALT LAKE CITY LGT RAIN  67  59  75 S7        30.00S
6HR MIN TEMP:  64; 6HR MAX TEMP:  73; 6HR PCP:  0.06;

LOS ANGELES CA PTSUNNY   75  58  55 VRB3      29.91R
6HR MIN TEMP:  69; 6HR MAX TEMP:  75;



USA.gov is the U.S. government's official web portal to all federal, state and local government web resources and services.